Flag for U.S.A. Weather past 2 weeks in Buffalo, New York, U.S.A.

Now
66 °F

Passing clouds.


Feels Like: 66 °F
Forecast: 62 / 72 °F
Wind: 10 mph from North

Location: Greater Buffalo International Airport

Current Time: Jul 24, 2014 at 12:46:52 AM

Latest Report: Jul 23, 2014 at 11:54 PM


Visibility: 10 mi

Pressure: 29.99 "Hg

Humidity: 68%

Dew point: 55 °F

Location of BuffaloLocation

Historic Weather in Buffalo — Graph

°F

Buffalo temperature yesterday

Maximum temperature yesterday: 78 °F (at 4:54 AM)
Minimum temperature yesterday: 66 °F (at 7:54 PM)
Average temperature yesterday: 71 °F

Past Weeks' High & Low Weather Summary

 TemperatureHumidityPressure
High83 °F (Jul 21, 3:54 PM)93% (Jul 13, 1:54 PM)30.25 "Hg (Jul 13, 1:54 PM)
Low56 °F (Jul 10, 4:54 AM)29% (Jul 11, 4:54 PM)29.66 "Hg (Jul 8, 10:01 PM)
Average69 °F68%30.01 "Hg
* Reported Jul 8 10:01 PM — Jul 23 10:54 PM, Buffalo, Weather by CustomWeather, © 2014

Note: Actual official high and low records may vary slightly from our data, if they occured in-between our weather recording intervals... More about our weather records

Advertising

Buffalo weather history for previous 24 hours

 ConditionsComfort  
Time TempWeatherWind HumidityBarometerVisibility
10:54 PM
Jul 23
66 °FPassing clouds.6 mph70%29.99 "Hg10 mi
9:54 PM66 °FPassing clouds.8 mph70%29.99 "Hg10 mi
8:54 PM66 °FPartly sunny.10 mph70%29.98 "Hg10 mi
7:54 PM66 °FPartly sunny.13 mph70%29.96 "Hg10 mi
6:54 PM68 °FBroken clouds.16 mph68%29.94 "Hg10 mi
5:54 PM69 °FBroken clouds.13 mph66%29.93 "Hg10 mi
4:54 PM73 °FPartly sunny.14 mph59%29.92 "Hg10 mi
3:54 PM73 °FPartly sunny.13 mph62%29.92 "Hg10 mi
2:54 PM74 °FPartly sunny.13 mph64%29.91 "Hg10 mi
1:54 PM72 °FPartly sunny.13 mph73%29.91 "Hg10 mi
12:54 PM68 °FLow clouds.13 mph82%29.90 "Hg10 mi
11:54 AM67 °FCloudy.13 mph87%29.90 "Hg10 mi
10:54 AM73 °FRain. Fog.9 mph90%29.88 "Hg1 mi
9:54 AM75 °FLight rain. Cloudy.14 mph82%29.86 "Hg6 mi
8:54 AM75 °FMostly cloudy.14 mph82%29.87 "Hg6 mi
7:54 AM75 °FFog.12 mph82%29.87 "Hg6 mi
6:54 AM76 °FOvercast.9 mph80%29.87 "Hg10 mi
5:54 AM77 °FMostly cloudy.12 mph74%29.88 "Hg10 mi
4:54 AM78 °FPartly cloudy.13 mph69%29.85 "Hg10 mi
12:54 AM73 °FPassing clouds.6 mph79%29.93 "Hg9 mi
Weather by CustomWeather, © 2014

See weather overviewHow to use our weather pages